FW2861 Weather Reports


Display with metric or nautical units.
time (UTC)temp
F
wind
direction
speed
MPH
gust
MPH
rain 1hr
in
rain 24hr
in
rain mn
in
humidity
%
barometer
mb
20260507140254 58 248 2.0 6.0 0.00 0.00 0.39 64 1005.8
20260507135756 58 243 2.0 6.0 0.00 0.00 0.39 65 1005.8
20260507135254 58 353 2.0 6.0 0.00 0.00 0.39 66 1005.8
20260507133600 57 305 2.0 5.0 0.00 0.43 0.39 69 1005.9
20260507133059 57 236 2.0 7.0 0.00 0.43 0.39 69 1005.8
20260507132559 56 0 2.0 7.0 0.00 0.43 0.39 71 1005.8
20260507131555 56 316 2.0 6.0 0.00 0.43 0.39 76 1005.9
20260507131057 56 252 2.0 6.0 0.00 0.43 0.39 75 1006.0
20260507130558 55 352 1.0 6.0 0.00 0.43 0.39 78 1005.8
20260507130056 55 0 1.0 5.0 0.00 0.43 0.39 81 1005.9
20260507125558 54 32 2.0 5.0 0.00 0.43 0.39 84 1006.0
20260507124557 52 250 2.0 6.0 0.00 0.43 0.39 88 1006.0
20260507124057 51 0 1.0 6.0 0.00 0.43 0.39 88 1006.0
20260507123557 51 0 0.0 2.0 0.00 0.43 0.39 89 1006.2
20260507123059 51 0 1.0 3.0 0.00 0.43 0.39 91 1006.2
20260507122557 51 0 1.0 3.0 0.00 0.43 0.39 90 1006.3
20260507122059 50 233 1.0 4.0 0.00 0.43 0.39 91 1006.1
20260507121559 50 0 1.0 4.0 0.00 0.43 0.39 92 1006.0
20260507121046 50 0 1.0 3.0 0.00 0.43 0.39 93 1005.7
20260507120542 49 0 0.0 4.0 0.00 0.43 0.39 93 1005.7
20260507120043 49 0 1.0 4.0 0.00 0.43 0.39 93 1005.9
20260507115044 49 0 0.0 2.0 0.01 0.43 0.39 94 1005.8
20260507114543 49 0 1.0 2.0 0.02 0.43 0.39 94 1005.8
20260507114043 49 0 0.0 2.0 0.05 0.43 0.39 94 1005.8
20260507113544 49 247 0.0 2.0 0.09 0.43 0.39 94 1005.8
20260507113045 49 0 1.0 2.0 0.12 0.43 0.39 94 1005.7
20260507112527 49 261 1.0 3.0 0.13 0.43 0.39 94 1005.6
20260507112028 48 290 1.0 3.0 0.13 0.43 0.39 94 1005.6
20260507111528 48 240 1.0 3.0 0.14 0.43 0.39 95 1005.5
20260507110529 49 67 0.0 2.0 0.16 0.43 0.39 95 1005.4
20260507105530 49 241 0.0 3.0 0.16 0.42 0.39 95 1005.6
20260507105030 49 0 0.0 1.0 0.16 0.42 0.38 95 1005.4
20260507104531 49 0 1.0 4.0 0.15 0.40 0.37 94 1005.6
20260507104031 49 270 1.0 4.0 0.13 0.37 0.34 94 1005.5
20260507103529 49 267 1.0 2.0 0.08 0.33 0.29 94 1005.6
20260507103032 49 0 1.0 2.0 0.06 0.30 0.26 94 1006.0
20260507102528 49 254 1.0 2.0 0.06 0.29 0.26 94 1006.0
20260507102030 49 278 1.0 4.0 0.06 0.29 0.26 94 1005.7
20260507101530 49 0 1.0 4.0 0.06 0.28 0.25 94 1005.7
20260507101015 49 254 1.0 4.0 0.06 0.28 0.24 94 1005.5
20260507100514 49 326 1.0 3.0 0.05 0.27 0.23 94 1005.5
20260507095515 49 267 1.0 3.0 0.06 0.26 0.22 95 1005.3
20260507095016 50 248 1.0 3.0 0.06 0.26 0.22 94 1005.1
20260507094515 50 268 1.0 3.0 0.06 0.25 0.21 94 1005.0
20260507094015 50 163 1.0 3.0 0.06 0.24 0.21 94 1005.4
20260507093016 50 296 1.0 4.0 0.07 0.24 0.20 94 1005.2
20260507092016 50 254 2.0 5.0 0.09 0.23 0.20 94 1005.0
20260507091501 51 200 1.0 4.0 0.09 0.23 0.19 94 1004.9
20260507091000 51 0 1.0 5.0 0.09 0.22 0.19 94 1004.8
20260507090501 51 0 1.0 5.0 0.09 0.22 0.19 93 1004.8
20260507090001 51 145 1.0 3.0 0.08 0.21 0.17 93 1004.9
20260507085501 51 230 2.0 5.0 0.09 0.20 0.17 92 1004.7
20260507085002 51 21 2.0 5.0 0.10 0.20 0.16 92 1004.8
20260507084501 52 27 2.0 4.0 0.12 0.19 0.15 91 1004.9
20260507084001 52 241 2.0 6.0 0.15 0.19 0.15 92 1004.8
20260507083450 52 78 2.0 6.0 0.15 0.18 0.15 92 1004.7
20260507082947 53 80 2.0 6.0 0.13 0.17 0.13 92 1004.4
20260507082447 53 259 1.0 5.0 0.13 0.16 0.13 93 1004.5
20260507081946 53 310 1.0 5.0 0.11 0.15 0.11 94 1004.6
20260507080947 54 238 1.0 3.0 0.10 0.14 0.10 93 1004.9
20260507075932 55 0 1.0 6.0 0.09 0.13 0.09 91 1004.6
20260507075431 55 321 1.0 6.0 0.08 0.11 0.08 90 1004.6
20260507074931 55 0 1.0 3.0 0.06 0.09 0.06 88 1004.9
20260507074431 56 0 2.0 4.0 0.02 0.06 0.02 86 1004.9
20260507073431 56 32 2.0 6.0 0.00 0.04 0.00 85 1003.8
20260507072931 56 104 2.0 6.0 0.00 0.04 0.00 85 1003.6
20260507072433 56 108 1.0 3.0 0.00 0.04 0.00 85 1003.8
20260507071419 56 254 1.0 4.0 0.00 0.04 0.00 86 1003.6
20260507070917 57 15 1.0 5.0 0.00 0.04 0.00 86 1003.5
20260507065906 57 254 1.0 5.0 0.00 0.04 0.00 86 1003.7
20260507065404 57 248 1.0 6.0 0.00 0.04 0.00 85 1003.8
20260507064855 57 267 1.0 6.0 0.00 0.04 0.00 85 1003.7
20260507064354 57 22 2.0 6.0 0.00 0.04 0.00 84 1003.9
20260507063855 58 223 2.0 6.0 0.00 0.04 0.00 84 1004.0
20260507063355 58 232 1.0 5.0 0.00 0.04 0.00 85 1003.9
20260507062855 58 263 1.0 5.0 0.00 0.04 0.00 85 1003.7
20260507062355 58 0 1.0 5.0 0.00 0.04 0.00 86 1003.7
20260507061855 58 251 1.0 5.0 0.00 0.04 0.00 86 1003.7
20260507061356 58 0 1.0 5.0 0.00 0.04 0.00 86 1003.8
20260507060851 58 216 1.0 6.0 0.00 0.04 0.00 86 1004.0
20260507060351 58 263 1.0 7.0 0.00 0.04 0.00 88 1004.2
20260507055850 59 170 1.0 7.0 0.00 0.04 0.00 92 1004.1
20260507055348 59 178 1.0 6.0 0.00 0.04 0.00 94 1004.1
20260507054850 59 0 1.0 6.0 0.00 0.04 0.00 95 1004.0
20260507054347 59 241 1.0 6.0 0.00 0.04 0.00 96 1004.1
20260507053847 59 0 1.0 5.0 0.00 0.04 0.00 96 1004.1
20260507053346 59 281 2.0 6.0 0.00 0.04 0.00 97 1004.2
20260507052847 58 229 2.0 6.0 0.00 0.04 0.00 97 1004.3
20260507052348 58 0 0.0 4.0 0.00 0.04 0.00 98 1004.1
20260507051346 58 0 0.0 2.0 0.00 0.04 0.00 98 1004.2
20260507050846 58 0 1.0 4.0 0.00 0.04 0.00 98 1004.3
20260507045847 58 249 0.0 4.0 0.00 0.04 0.00 98 1004.3
20260507044846 58 240 2.0 5.0 0.00 0.04 0.00 98 1004.3
20260507044346 58 251 2.0 8.0 0.00 0.04 0.00 97 1004.2
20260507043845 58 263 3.0 8.0 0.00 0.04 0.00 97 1004.3
20260507043345 58 260 3.0 8.0 0.00 0.04 0.00 97 1004.0
20260507042845 58 223 3.0 9.0 0.00 0.04 0.00 97 1003.8
20260507042345 58 280 4.0 11.0 0.00 0.04 0.00 97 1004.0
20260507041842 58 247 4.0 11.0 0.00 0.04 0.00 97 1004.2
20260507041341 58 226 4.0 9.0 0.00 0.04 0.00 96 1004.2
20260507040840 58 300 4.0 9.0 0.00 0.04 0.00 96 1004.1
20260507035838 58 276 4.0 8.0 0.00 0.04 0.04 96 1004.2
20260507035340 58 268 4.0 7.0 0.00 0.04 0.04 96 1004.3
20260507034839 58 276 4.0 9.0 0.00 0.04 0.04 96 1004.4
20260507033840 58 268 5.0 11.0 0.00 0.04 0.04 96 1004.4
20260507033341 57 250 5.0 11.0 0.00 0.04 0.04 95 1004.3
20260507032842 57 272 5.0 11.0 0.00 0.04 0.04 96 1004.2
20260507032337 57 245 5.0 11.0 0.00 0.04 0.04 96 1004.2
20260507031837 57 257 5.0 11.0 0.00 0.04 0.04 96 1004.1
20260507031336 57 259 4.0 11.0 0.00 0.04 0.04 96 1004.0
20260507030837 57 289 4.0 11.0 0.00 0.04 0.04 96 1004.0
20260507030335 57 256 5.0 9.0 0.00 0.04 0.04 96 1003.9
20260507025335 57 253 5.0 11.0 0.00 0.04 0.04 96 1003.8
20260507024835 57 271 5.0 11.0 0.00 0.04 0.04 96 1003.9
20260507024335 57 270 5.0 11.0 0.00 0.04 0.04 96 1003.9
20260507023836 57 272 5.0 12.0 0.00 0.04 0.04 96 1003.9
20260507023335 57 212 5.0 12.0 0.00 0.04 0.04 96 1003.8
20260507022837 57 277 4.0 11.0 0.00 0.04 0.04 96 1003.8
20260507022336 57 260 4.0 11.0 0.00 0.04 0.04 96 1003.8
20260507021835 57 249 4.0 11.0 0.00 0.04 0.04 96 1003.8
20260507021333 57 256 4.0 8.0 0.00 0.04 0.04 96 1003.9
20260507020832 57 236 4.0 9.0 0.00 0.04 0.04 96 1003.9
20260507020333 57 260 4.0 9.0 0.00 0.04 0.04 96 1003.9
20260507015833 57 253 4.0 9.0 0.00 0.04 0.04 96 1004.0
20260507015335 57 233 4.0 10.0 0.00 0.04 0.04 96 1004.0
20260507014833 57 275 5.0 11.0 0.00 0.04 0.04 96 1004.2
20260507014334 57 255 5.0 11.0 0.00 0.04 0.04 96 1004.2
20260507013834 57 295 5.0 11.0 0.00 0.04 0.04 96 1004.3
20260507013334 57 271 5.0 11.0 0.00 0.04 0.04 96 1004.3
20260507012834 57 261 4.0 10.0 0.00 0.04 0.04 96 1004.3
20260507012332 57 245 4.0 12.0 0.00 0.04 0.04 96 1004.5
20260507011331 57 273 5.0 12.0 0.00 0.04 0.04 96 1004.5
20260507010326 57 281 5.0 11.0 0.00 0.04 0.04 95 1004.4
20260507005327 57 277 5.0 10.0 0.00 0.04 0.04 95 1004.4
20260507004827 57 286 5.0 13.0 0.00 0.04 0.04 95 1004.4
20260507003829 57 291 5.0 11.0 0.00 0.04 0.04 95 1004.3
20260507003328 57 245 5.0 11.0 0.00 0.04 0.04 95 1004.3
20260507002829 57 269 6.0 12.0 0.00 0.04 0.04 95 1004.4
20260507002329 57 266 5.0 12.0 0.00 0.04 0.04 95 1004.3
20260507001824 57 288 5.0 11.0 0.00 0.04 0.04 95 1004.4
20260507001327 57 261 5.0 11.0 0.00 0.04 0.04 95 1004.4
20260506235826 57 252 5.0 11.0 0.00 0.04 0.04 95 1004.1
20260506235328 57 266 5.0 11.0 0.00 0.04 0.04 94 1004.1
20260506234826 57 183 5.0 11.0 0.00 0.04 0.04 94 1004.1
20260506234326 57 260 5.0 11.0 0.00 0.04 0.04 94 1004.0
20260506233326 57 290 5.0 10.0 0.00 0.04 0.04 94 1004.0
20260506232826 57 278 5.0 10.0 0.00 0.04 0.04 94 1004.1
20260506232326 57 261 4.0 9.0 0.00 0.04 0.04 95 1004.2
20260506231323 57 298 4.0 9.0 0.00 0.04 0.04 95 1004.4
20260506230824 57 294 4.0 9.0 0.00 0.04 0.04 94 1004.4
20260506230323 57 253 4.0 9.0 0.00 0.04 0.03 95 1004.4
20260506225823 57 248 3.0 9.0 0.00 0.04 0.03 95 1004.4
20260506225323 57 256 3.0 9.0 0.00 0.04 0.03 95 1004.4
20260506224823 57 236 4.0 9.0 0.00 0.04 0.03 95 1004.3
20260506224324 57 295 4.0 9.0 0.00 0.04 0.03 95 1004.3
20260506223823 57 196 4.0 11.0 0.00 0.04 0.03 95 1004.5
20260506223322 57 241 4.0 11.0 0.00 0.04 0.03 95 1004.6
20260506222821 57 208 4.0 11.0 0.00 0.04 0.03 95 1004.7
20260506222321 58 252 4.0 11.0 0.00 0.04 0.03 94 1004.8
20260506221819 58 232 4.0 10.0 0.00 0.04 0.03 94 1004.8
20260506220816 58 253 4.0 11.0 0.01 0.04 0.03 93 1004.8
20260506220314 58 114 5.0 11.0 0.01 0.04 0.03 92 1004.9
20260506215316 59 228 4.0 10.0 0.02 0.04 0.03 90 1004.9
20260506214816 59 244 4.0 9.0 0.02 0.04 0.03 90 1005.0
20260506214316 59 239 4.0 9.0 0.02 0.04 0.03 90 1005.0
20260506213817 59 281 4.0 10.0 0.02 0.04 0.03 90 1004.9
20260506213316 59 162 5.0 11.0 0.02 0.04 0.03 90 1004.9
20260506212818 59 244 5.0 11.0 0.02 0.04 0.03 90 1004.9
20260506210813 60 247 4.0 9.0 0.01 0.03 0.02 89 1005.0
20260506210313 60 259 5.0 11.0 0.01 0.02 0.02 89 1005.1
20260506205812 60 295 6.0 11.0 0.01 0.02 0.02 88 1005.0
20260506205312 60 281 6.0 19.0 0.01 0.02 0.02 87 1005.1
20260506204814 60 255 6.0 19.0 0.01 0.02 0.02 86 1005.2
20260506204313 60 276 6.0 15.0 0.01 0.02 0.02 87 1005.1
20260506203813 61 259 6.0 14.0 0.01 0.02 0.02 86 1005.1
20260506203314 61 298 6.0 11.0 0.01 0.02 0.02 85 1005.1
20260506202812 61 257 6.0 13.0 0.02 0.02 0.02 85 1005.1
20260506202312 61 190 5.0 13.0 0.01 0.02 0.01 84 1005.1
20260506201308 62 273 5.0 11.0 0.01 0.02 0.01 83 1005.2
20260506200809 62 263 5.0 11.0 0.01 0.02 0.01 82 1005.3
20260506200309 62 277 5.0 11.0 0.01 0.02 0.01 82 1005.2
20260506195810 62 274 5.0 11.0 0.01 0.01 0.01 81 1005.2
20260506195309 62 294 4.0 13.0 0.01 0.01 0.01 80 1005.3
20260506194808 62 190 5.0 13.0 0.01 0.01 0.01 80 1005.5
20260506194309 63 279 5.0 12.0 0.00 0.01 0.00 78 1005.5
20260506193810 63 253 5.0 12.0 0.00 0.01 0.00 78 1005.5
20260506192308 64 304 5.0 11.0 0.00 0.00 0.00 73 1005.5
20260506191807 64 279 5.0 10.0 0.00 0.00 0.00 73 1005.6
20260506191308 64 268 5.0 11.0 0.00 0.00 0.00 72 1005.6
20260506190809 64 298 5.0 11.0 0.00 0.00 0.00 72 1005.6
20260506185809 65 273 5.0 12.0 0.00 0.00 0.00 72 1005.4
20260506185307 65 285 5.0 11.0 0.00 0.00 0.00 71 1005.4
20260506184807 65 269 5.0 11.0 0.00 0.00 0.00 71 1005.4
20260506184306 65 229 5.0 12.0 0.00 0.00 0.00 70 1005.6
20260506183806 65 246 5.0 12.0 0.00 0.00 0.00 70 1005.7
20260506183307 66 262 4.0 9.0 0.00 0.00 0.00 70 1005.7
20260506182307 66 272 5.0 11.0 0.00 0.00 0.00 69 1005.7
20260506181805 66 43 4.0 14.0 0.00 0.00 0.00 69 1005.7
20260506181306 66 325 5.0 14.0 0.00 0.00 0.00 69 1005.7
20260506180304 67 184 6.0 15.0 0.00 0.00 0.00 68 1005.9
20260506175806 67 299 6.0 16.0 0.00 0.00 0.00 68 1006.1
20260506175301 68 226 6.0 16.0 0.00 0.00 0.00 66 1006.2
20260506174801 68 272 6.0 12.0 0.00 0.00 0.00 66 1006.3
20260506174303 68 286 6.0 24.0 0.00 0.00 0.00 66 1006.3
20260506173802 68 287 6.0 24.0 0.00 0.00 0.00 65 1006.3
20260506172802 67 270 5.0 10.0 0.00 0.00 0.00 66 1006.3
20260506171759 68 156 4.0 11.0 0.00 0.00 0.00 66 1006.2
20260506171258 68 220 4.0 11.0 0.00 0.00 0.00 66 1006.2
20260506170758 67 229 5.0 11.0 0.00 0.00 0.00 66 1006.2
20260506170259 67 247 5.0 12.0 0.00 0.00 0.00 67 1006.3
20260506165759 67 174 6.0 14.0 0.00 0.00 0.00 67 1006.4
20260506165259 67 305 5.0 16.0 0.00 0.00 0.00 66 1006.6
20260506164800 68 284 5.0 16.0 0.00 0.00 0.00 66 1006.6
20260506164301 68 253 5.0 11.0 0.00 0.00 0.00 66 1006.7
20260506163800 67 267 5.0 11.0 0.00 0.00 0.00 66 1006.6
20260506163258 68 304 5.0 12.0 0.00 0.00 0.00 66 1006.9
20260506162754 68 268 5.0 12.0 0.00 0.00 0.00 66 1006.9
20260506162253 68 284 4.0 11.0 0.00 0.00 0.00 66 1006.9
20260506161257 69 262 4.0 12.0 0.00 0.00 0.00 64 1007.0
20260506160755 68 241 4.0 17.0 0.00 0.00 0.00 65 1007.1
20260506160257 68 274 5.0 17.0 0.00 0.00 0.00 65 1007.2
20260506155752 68 246 4.0 12.0 0.00 0.00 0.00 65 1007.2
20260506155253 69 260 4.0 12.0 0.00 0.00 0.00 65 1007.2
20260506154753 69 268 4.0 12.0 0.00 0.00 0.00 64 1007.4
20260506154252 70 251 4.0 12.0 0.00 0.00 0.00 63 1007.5
20260506153749 69 163 4.0 12.0 0.00 0.00 0.00 64 1007.7
20260506153249 69 290 4.0 10.0 0.00 0.00 0.00 64 1007.7
20260506152750 68 238 5.0 11.0 0.00 0.00 0.00 65 1007.7
20260506152250 68 229 5.0 11.0 0.00 0.00 0.00 65 1007.9
20260506151749 69 234 4.0 10.0 0.00 0.00 0.00 64 1007.8
20260506151249 69 277 4.0 11.0 0.00 0.00 0.00 63 1007.9
20260506150750 69 199 4.0 11.0 0.00 0.00 0.00 64 1007.8
20260506150249 69 291 4.0 11.0 0.00 0.00 0.00 64 1007.9
20260506145749 69 278 4.0 11.0 0.00 0.00 0.00 65 1007.8
20260506145247 69 296 3.0 9.0 0.00 0.00 0.00 64 1007.8
20260506144249 68 251 4.0 10.0 0.00 0.00 0.00 65 1007.6
20260506143748 68 272 4.0 10.0 0.00 0.00 0.00 65 1007.5
20260506143249 69 258 4.0 10.0 0.00 0.00 0.00 65 1007.6
20260506142748 68 295 4.0 10.0 0.00 0.00 0.00 66 1007.6
20260506142246 68 312 4.0 9.0 0.00 0.00 0.00 65 1007.5
20260506141747 69 287 4.0 12.0 0.00 0.00 0.00 65 1007.6
20260506141247 68 291 5.0 12.0 0.00 0.00 0.00 66 1007.5
20260506140748 68 1 4.0 11.0 0.00 0.00 0.00 66 1007.7